STARLINK-34874 (65335 NORAD) Tracking and Keplerian Element Data

This shows tracking and keplerian element data for the satellite.

Feedback or suggestion? Click here.




ElementValue
Catalog65335
NameSTARLINK-34874
Epoch Orbit1890
Epoch Day354.01297455
Epoch Year2025
RAAN217.1311
Inclination53.157
Eccentricity0.0001273
Argument of Perigee92.9016
Mean Anonmoly267.213
Mean Motion15.30199866
Decay Rate8.29E-05
L11 65335U 25189N 25354.01297455 .00008290 00000+0 29170-3 0 9999
L22 65335 53.1570 217.1311 0001273 92.9016 267.2130 15.30199866 18908



Live tracking and technical data element details for STARLINK-34874 (NORAD 65335). STARLINK-34874 can be tracked NOW for your location showing map with azimuth and elevation plus other details from your city location.







IsCatalogInMostPopularTable: catalog: 65335, numindb: 4
Update: records affected: 1



GetName: 65335 STARLINK-34874

Hit Count: updated at: Tue, 10 Feb 2026 03:25:35 GMT